Weather History for Camdenton, MO

Change the Weather History Date:

Wednesday, January 30, 2013

  Actual Average (KAIZ) Record (KAIZ)
Temperature  
Mean Temperature 38 °F -  
Max Temperature 50 °F 41 °F 64 °F (2012)
Min Temperature 26 °F 23 °F 1 °F (2004)
Degree Days  
Heating Degree Days 27    
Moisture  
Dew Point 30 °F    
Average Humidity 87    
Maximum Humidity 100    
Minimum Humidity 69    
Precipitation  
Precipitation 0.05 in - - ()
Sea Level Pressure  
Sea Level Pressure 29.69 in    
Wind  
Wind Speed 14 mph (WSW)    
Max Wind Speed 26 mph    
Max Gust Speed 37 mph    
Visibility 9 miles    
Events Rain , Snow    
Averages and records for this station are not official NWS values.
T = Trace of Precipitation, MM = Missing Value Source: NWS Daily Summary

Daily Weather History Graph

Daily Weather History Graph

Search for Another Location

Airport:

Trip Planner

Search our weather history database for the weather conditions in past years. The results will help you decide how hot, cold, wet, or windy it might be!

Date:

Astronomy

Jan. 30, 2013 Rise Set
Actual Time 7:16 AM CST 5:32 PM CST
Civil Twilight 6:48 AM CST 5:59 PM CST
Nautical Twilight 6:17 AM CST 6:31 PM CST
Astronomical Twilight 5:46 AM CST 7:02 PM CST
Moon 9:26 PM CST (1/30) 8:49 AM CST (1/30)
Length of Visible Light 11h 11m
Length of Day
10h 15m
Waning Gibbous, 87% of the Moon is Illuminated
Jan 30
Waning Gibbous
Feb 3
Last Quarter
Feb 10
New
Feb 17
First Quarter
Feb 25
Full

Hourly Weather History & Observations

Time (CST) Temp. Windchill Dew Point Humidity Pressure Visibility Wind Dir Wind Speed Gust Speed Precip Events Conditions
12:35 AM 50.0 °F - 50.0 °F 100% 29.45 in 7.0 mi ESE 9.2 mph - 0.03 in Rain Light Rain
12:55 AM 50.0 °F - 50.0 °F 100% 29.43 in 10.0 mi ESE 11.5 mph - 0.03 in   Overcast
1:15 AM 50.0 °F - 50.0 °F 100% 29.42 in 10.0 mi SE 10.4 mph 16.1 mph N/A   Overcast
1:35 AM 50.0 °F - 50.0 °F 100% 29.42 in 10.0 mi South 8.1 mph - N/A   Overcast
1:55 AM 50.0 °F - 50.0 °F 100% 29.42 in 10.0 mi SSW 5.8 mph - N/A   Overcast
2:15 AM 50.0 °F - 50.0 °F 100% 29.42 in 10.0 mi SW 8.1 mph - N/A   Overcast
2:35 AM 46.4 °F 39.8 °F 46.4 °F 100% 29.43 in 5.0 mi WSW 16.1 mph 21.9 mph N/A   Overcast
2:55 AM 44.6 °F 37.4 °F 44.6 °F 100% 29.44 in 10.0 mi WSW 16.1 mph 23.0 mph N/A   Overcast
3:15 AM 42.8 °F 35.1 °F 42.8 °F 100% 29.45 in 10.0 mi SW 16.1 mph 24.2 mph N/A   Overcast
3:35 AM 41.0 °F 31.6 °F 41.0 °F 100% 29.46 in 5.0 mi WSW 20.7 mph 25.3 mph N/A   Overcast
3:55 AM 39.2 °F 30.5 °F 39.2 °F 100% 29.47 in 2.5 mi WSW 16.1 mph 24.2 mph N/A   Overcast
4:15 AM 39.2 °F 30.5 °F 39.2 °F 100% 29.48 in 3.0 mi WSW 16.1 mph 21.9 mph N/A   Drizzle
4:35 AM 37.4 °F 28.5 °F 37.4 °F 100% 29.49 in 4.0 mi West 15.0 mph 20.7 mph N/A   Overcast
4:55 AM 37.4 °F 27.8 °F 37.4 °F 100% 29.48 in 7.0 mi WSW 17.3 mph 23.0 mph N/A   Light Drizzle
5:15 AM 37.4 °F 27.8 °F 37.4 °F 100% 29.49 in 5.0 mi WSW 17.3 mph 23.0 mph N/A   Overcast
5:55 AM 37.4 °F 28.2 °F 37.4 °F 100% 29.49 in 7.0 mi WSW 16.1 mph 20.7 mph N/A   Light Drizzle
6:15 AM 37.4 °F 28.2 °F 37.4 °F 100% 29.50 in 7.0 mi WSW 16.1 mph 26.5 mph N/A   Overcast
6:35 AM 35.6 °F 27.5 °F 35.6 °F 100% 29.51 in 10.0 mi WSW 11.5 mph 19.6 mph N/A   Overcast
6:55 AM 35.6 °F 26.6 °F 35.6 °F 100% 29.51 in 10.0 mi WSW 13.8 mph - N/A   Overcast
7:15 AM 35.6 °F 27.5 °F 35.6 °F 100% 29.52 in 7.0 mi WSW 11.5 mph 19.6 mph N/A   Drizzle
7:35 AM 35.6 °F 26.6 °F 35.6 °F 100% 29.52 in 10.0 mi WSW 13.8 mph 17.3 mph N/A   Overcast
7:55 AM 35.6 °F 27.1 °F 35.6 °F 100% 29.54 in 7.0 mi SW 12.7 mph - N/A Rain Rain
8:15 AM 32.0 °F 22.5 °F 32.0 °F 100% 29.56 in 1.8 mi West 12.7 mph - 0.02 in Snow Light Snow
8:35 AM 33.8 °F 23.9 °F 33.8 °F 100% 29.56 in 4.0 mi West 15.0 mph 18.4 mph 0.02 in Snow Light Snow
8:55 AM 32.0 °F 21.6 °F 32.0 °F 100% 29.58 in 3.0 mi West 15.0 mph 24.2 mph 0.02 in Snow Snow
9:15 AM 32.0 °F 22.5 °F 32.0 °F 100% 29.60 in 10.0 mi West 12.7 mph 25.3 mph N/A   Overcast
9:35 AM 32.0 °F 20.5 °F 32.0 °F 100% 29.62 in 5.0 mi West 18.4 mph 26.5 mph N/A Snow Light Snow
9:55 AM 32.0 °F 21.2 °F 32.0 °F 100% 29.63 in 7.0 mi West 16.1 mph 27.6 mph N/A   Overcast
10:15 AM 30.2 °F 15.9 °F 30.2 °F 100% 29.65 in 5.0 mi West 26.5 mph 36.8 mph N/A Snow Light Snow
10:35 AM 30.2 °F 20.2 °F 30.2 °F 100% 29.67 in 10.0 mi WNW 12.7 mph 26.5 mph N/A   Overcast
10:55 AM 30.2 °F 18.1 °F 30.2 °F 100% 29.67 in 10.0 mi West 18.4 mph 28.8 mph N/A   Overcast
11:15 AM 30.2 °F 17.1 °F 30.2 °F 100% 29.68 in 10.0 mi WNW 21.9 mph 32.2 mph N/A   Overcast
11:35 AM 30.2 °F 16.5 °F 28.4 °F 93% 29.69 in 10.0 mi WNW 24.2 mph 32.2 mph N/A   Overcast
11:55 AM 30.2 °F 17.1 °F 26.6 °F 86% 29.69 in 10.0 mi West 21.9 mph 34.5 mph N/A   Overcast
12:15 PM 30.2 °F 16.5 °F 24.8 °F 80% 29.69 in 10.0 mi WNW 24.2 mph 31.1 mph N/A   Overcast
12:35 PM 28.4 °F 15.1 °F 24.8 °F 86% 29.69 in 10.0 mi West 20.7 mph 29.9 mph N/A   Overcast
12:55 PM 28.4 °F 15.4 °F 24.8 °F 86% 29.70 in 10.0 mi WNW 19.6 mph 28.8 mph N/A   Overcast
1:15 PM 28.4 °F 16.6 °F 24.8 °F 86% 29.71 in 10.0 mi West 16.1 mph 23.0 mph N/A   Overcast
1:35 PM 28.4 °F 17.0 °F 24.8 °F 86% 29.71 in 10.0 mi West 15.0 mph 28.8 mph N/A   Overcast
2:15 PM 30.2 °F 17.8 °F 24.8 °F 80% 29.73 in 10.0 mi West 19.6 mph 25.3 mph N/A   Overcast
2:35 PM 28.4 °F 16.6 °F 23.0 °F 80% 29.75 in 10.0 mi West 16.1 mph 31.1 mph N/A   Overcast
2:55 PM 30.2 °F 20.2 °F 23.0 °F 75% 29.76 in 10.0 mi West 12.7 mph 21.9 mph N/A   Overcast
3:15 PM 30.2 °F 17.4 °F 23.0 °F 75% 29.77 in 10.0 mi West 20.7 mph 24.2 mph N/A   Overcast
3:35 PM 30.2 °F 18.1 °F 23.0 °F 75% 29.79 in 10.0 mi West 18.4 mph 26.5 mph N/A   Overcast
3:55 PM 30.2 °F 18.5 °F 23.0 °F 75% 29.80 in 10.0 mi West 17.3 mph 26.5 mph N/A   Overcast
4:15 PM 28.4 °F 16.2 °F 23.0 °F 80% 29.81 in 10.0 mi West 17.3 mph 23.0 mph N/A Snow Light Snow
4:35 PM 28.4 °F 16.6 °F 23.0 °F 80% 29.82 in 10.0 mi West 16.1 mph 25.3 mph N/A   Overcast
4:55 PM 28.4 °F 15.4 °F 23.0 °F 80% 29.83 in 10.0 mi West 19.6 mph 26.5 mph N/A   Overcast
5:15 PM 28.4 °F 15.8 °F 21.2 °F 74% 29.85 in 10.0 mi West 18.4 mph 25.3 mph N/A   Overcast
5:35 PM 28.4 °F 14.4 °F 21.2 °F 74% 29.86 in 10.0 mi West 23.0 mph 29.9 mph N/A   Overcast
5:55 PM 28.4 °F 18.5 °F 19.4 °F 69% 29.87 in 10.0 mi West 11.5 mph 24.2 mph N/A   Overcast
6:15 PM 28.4 °F 16.6 °F 19.4 °F 69% 29.88 in 10.0 mi West 16.1 mph 23.0 mph N/A   Overcast
6:35 PM 28.4 °F 18.0 °F 19.4 °F 69% 29.89 in 10.0 mi West 12.7 mph 20.7 mph N/A   Overcast
6:55 PM 28.4 °F 18.5 °F 19.4 °F 69% 29.89 in 10.0 mi West 11.5 mph 19.6 mph N/A   Overcast
7:35 PM 28.4 °F 17.5 °F 21.2 °F 74% 29.91 in 10.0 mi West 13.8 mph - N/A   Overcast
7:55 PM 28.4 °F 17.5 °F 21.2 °F 74% 29.92 in 10.0 mi West 13.8 mph 21.9 mph N/A   Overcast
8:15 PM 28.4 °F 17.0 °F 19.4 °F 69% 29.93 in 10.0 mi West 15.0 mph 24.2 mph N/A   Overcast
8:35 PM 28.4 °F 15.8 °F 19.4 °F 69% 29.94 in 10.0 mi West 18.4 mph 23.0 mph N/A   Overcast
8:55 PM 26.6 °F 14.7 °F 17.6 °F 69% 29.95 in 10.0 mi West 15.0 mph 21.9 mph N/A   Overcast
9:15 PM 28.4 °F 19.1 °F 19.4 °F 69% 29.95 in 10.0 mi West 10.4 mph 20.7 mph N/A   Overcast
9:35 PM 26.6 °F 15.2 °F 19.4 °F 74% 29.96 in 10.0 mi WSW 13.8 mph 20.7 mph N/A   Overcast
9:55 PM 28.4 °F 19.1 °F 19.4 °F 69% 29.96 in 10.0 mi WSW 10.4 mph - N/A   Overcast
10:15 PM 28.4 °F 19.1 °F 19.4 °F 69% 29.96 in 10.0 mi West 10.4 mph - N/A   Overcast
10:35 PM 26.6 °F 15.7 °F 19.4 °F 74% 29.97 in 10.0 mi West 12.7 mph 20.7 mph N/A   Overcast
10:55 PM 26.6 °F 15.7 °F 19.4 °F 74% 29.97 in 10.0 mi West 12.7 mph 16.1 mph N/A   Overcast
11:15 PM 26.6 °F 18.2 °F 19.4 °F 74% 29.97 in 10.0 mi West 8.1 mph 16.1 mph N/A   Overcast
11:35 PM 26.6 °F 16.8 °F 19.4 °F 74% 29.97 in 10.0 mi WSW 10.4 mph - N/A   Overcast
11:55 PM 26.6 °F 16.8 °F 19.4 °F 74% 29.97 in 10.0 mi WSW 10.4 mph 18.4 mph N/A Snow Light Snow